Torna al catalogo

THORAD DELTA 1 DEB

AttivoSSO
NORAD 8146·DEBRIS·🇺🇸 United States

Lanciato Nov 15, 1974 da Vandenberg Space Force Base

Loading…

Prossimi Passaggi (prossime 24 ore)

TLE

AggiornatoSource: Space-Track

Epoca: Sep 14, 2026, 12:32 UTC

1 08146U 74089Q   26257.52238947 -.00000002  00000-0  26365-3 0  9997
2 08146 102.0127 257.0962 0185758 332.7147 179.2555 12.54939196372326

Traccia THORAD DELTA 1 DEB in tempo reale con AllMySat

Download on the App Store